User: anonymous   Login
Location: Mesa Vista Observatory
(35.5777°N, 105.6987°W)
Time: 00:39:07
(UTC-06:00)
Language:

Tiros 1 - Orbit

View from above orbital plane
View from above orbital plane
View from above satellite
View from above satellite

Ground track
Ground track

The orbit data is extracted from the following two-line orbital elements,

1    29U 60002B   20268.54767774 -.00000111  00000-0  14426-4 0  9999
2    29  48.3793 200.9562 0024622 296.1669  63.6711 14.74372339233281
Epoch (UTC): 24 September 2020 13:08:39
Eccentricity: 0.0024622
inclination: 48.3793°
perigee height: 630 km
apogee height: 664 km
right ascension of ascending node: 200.9562°
argument of perigee: 296.1669°
revolutions per day: 14.74372339
mean anomaly at epoch: 63.6711°
orbit number at epoch: 23328

The dashed part of the orbit path shows where the satellite is in the earth's shadow,  

DLR